Location: Unspecified
(48.5670°N, 0.0000°E)
Time: 18:58:17
(UTC+00:00)

Vanguard 2 Rocket - Pass Details

Date: 03 September 2019
Orbit: 554 x 3326 km, 32.9° (Epoch: 21 September)

Event Time Altitude Azimuth Distance (km) Brightness Sun altitude
Rises 00:55:56 0° 232° (SW) 3,708 - -32.4°
Reaches altitude 10° 00:58:30 10° 221° (SW) 3,045 - -32.2°
Maximum altitude 01:05:02 30° 163° (SSE) 2,568 - -31.9°
Exits shadow 01:08:07 26° 137° (SE) 3,054 9.3 -31.7°
Drops below altitude 10° 01:15:17 10° 110° (ESE) 4,872 10.6 -31.3°
Sets 01:20:42 0° 102° (ESE) 6,351 11.3 -31.0°
